When you browse on this site, cookies collect data to enhance your experience and personalize the content and advertising you see.
Visit our Privacy Policy to learn more. By continuing to use the site, you agree to this use of cookies and data.
  • In Deutschland
  • Länderverzeichnis
  • Für 7 Tage
  • Wassertemperatur
  • Wetterkarte
  • Widgets
  • user-avatar
    Anmelden

    Stündliche Wetter Benguela

    Heute, 25 August, Sonntag

    Zeit Temperatur Niederschläge Wind Luftdruck Luftfeuchtigkeit
    00:00 +20°C° 0 mm 1 m/S 761 mmHg 89%
    01:00 +19°C° 0 mm 1 m/S 762 mmHg 88%
    02:00 +19°C° 0 mm 1 m/S 761 mmHg 87%
    03:00 +19°C° 0 mm 1 m/S 761 mmHg 85%
    04:00 +19°C° 0 mm 1 m/S 760 mmHg 84%
    05:00 +20°C° 0 mm 1 m/S 761 mmHg 80%
    06:00 +21°C° 0 mm 1 m/S 761 mmHg 75%
    07:00 +21°C° 0 mm 0 m/S 762 mmHg 67%
    08:00 +25°C° 0 mm 1 m/S 761 mmHg 59%
    09:00 +28°C° 0 mm 2 m/S 761 mmHg 50%
    10:00 +30°C° 0 mm 2 m/S 761 mmHg 42%
    11:00 +30°C° 0 mm 3 m/S 760 mmHg 43%
    12:00 +30°C° 0 mm 3 m/S 760 mmHg 45%
    13:00 +30°C° 0 mm 4 m/S 759 mmHg 47%
    14:00 +30°C° 0 mm 4 m/S 758 mmHg 50%
    15:00 +29°C° 0 mm 4 m/S 758 mmHg 52%
    16:00 +28°C° 0 mm 3 m/S 758 mmHg 55%
    17:00 +26°C° 0 mm 3 m/S 758 mmHg 67%
    18:00 +24°C° 0 mm 2 m/S 759 mmHg 79%
    19:00 +21°C° 0 mm 2 m/S 760 mmHg 91%
    20:00 +21°C° 0 mm 1 m/S 761 mmHg 91%
    21:00 +21°C° 0 mm 1 m/S 761 mmHg 92%
    22:00 +20°C° 0 mm 1 m/S 761 mmHg 92%
    23:00 +20°C° 0 mm 1 m/S 761 mmHg 91%

    Morgen, 26 August, Montag

    Zeit Temperatur Niederschläge Wind Luftdruck Luftfeuchtigkeit
    00:00 +20°C° 0 mm 1 m/S 761 mmHg 90%
    01:00 +20°C° 0 mm 1 m/S 761 mmHg 89%
    02:00 +19°C° 0 mm 1 m/S 761 mmHg 89%
    03:00 +19°C° 0 mm 1 m/S 761 mmHg 88%
    04:00 +19°C° 0 mm 1 m/S 761 mmHg 88%
    05:00 +20°C° 0 mm 1 m/S 761 mmHg 84%
    06:00 +21°C° 0 mm 1 m/S 762 mmHg 80%
    07:00 +21°C° 0 mm 1 m/S 762 mmHg 76%
    08:00 +24°C° 0 mm 1 m/S 762 mmHg 67%
    09:00 +26°C° 0 mm 2 m/S 762 mmHg 58%
    10:00 +28°C° 0 mm 2 m/S 762 mmHg 49%
    11:00 +29°C° 0 mm 3 m/S 761 mmHg 50%
    12:00 +29°C° 0 mm 3 m/S 760 mmHg 50%
    13:00 +30°C° 0 mm 4 m/S 760 mmHg 50%
    14:00 +29°C° 0 mm 4 m/S 759 mmHg 52%
    15:00 +28°C° 0 mm 3 m/S 759 mmHg 54%
    16:00 +28°C° 0 mm 3 m/S 759 mmHg 56%
    17:00 +25°C° 0 mm 3 m/S 759 mmHg 67%
    18:00 +23°C° 0 mm 2 m/S 760 mmHg 78%
    19:00 +21°C° 0 mm 1 m/S 761 mmHg 89%
    20:00 +21°C° 0 mm 1 m/S 761 mmHg 90%
    21:00 +20°C° 0 mm 2 m/S 762 mmHg 91%
    22:00 +19°C° 0 mm 2 m/S 762 mmHg 92%
    23:00 +20°C° 0 mm 1 m/S 762 mmHg 92%

    übermorgen, 27 August, Dienstag

    Zeit Temperatur Niederschläge Wind Luftdruck Luftfeuchtigkeit
    00:00 +19°C° 0 mm 1 m/S 762 mmHg 92%
    01:00 +19°C° 0 mm 1 m/S 762 mmHg 92%
    02:00 +16°C° 0 mm 0 m/S 761 mmHg 91%
    03:00 +16°C° 0 mm 0 m/S 761 mmHg 90%
    04:00 +16°C° 0 mm 0 m/S 761 mmHg 89%
    05:00 +17°C° 0 mm 0 m/S 761 mmHg 85%
    06:00 +18°C° 0 mm 0 m/S 761 mmHg 80%
    07:00 +19°C° 0 mm 0 m/S 762 mmHg 75%
    08:00 +24°C° 0 mm 1 m/S 762 mmHg 65%
    09:00 +26°C° 0 mm 1 m/S 761 mmHg 55%
    10:00 +29°C° 0 mm 2 m/S 761 mmHg 45%
    11:00 +29°C° 0 mm 3 m/S 761 mmHg 46%
    12:00 +30°C° 0 mm 4 m/S 760 mmHg 46%
    13:00 +30°C° 0 mm 5 m/S 759 mmHg 47%
    14:00 +29°C° 0 mm 4 m/S 759 mmHg 50%
    15:00 +28°C° 0 mm 4 m/S 758 mmHg 53%
    16:00 +28°C° 0 mm 3 m/S 758 mmHg 55%
    17:00 +25°C° 0 mm 3 m/S 759 mmHg 67%
    18:00 +23°C° 0 mm 2 m/S 759 mmHg 78%
    19:00 +21°C° 0 mm 1 m/S 760 mmHg 90%
    20:00 +21°C° 0 mm 1 m/S 760 mmHg 91%
    21:00 +20°C° 0 mm 1 m/S 761 mmHg 92%
    22:00 +20°C° 0 mm 1 m/S 761 mmHg 94%
    23:00 +19°C° 0 mm 1 m/S 761 mmHg 94%

    28 August, Mittwoch

    Zeit Temperatur Niederschläge Wind Luftdruck Luftfeuchtigkeit
    00:00 +19°C° 0 mm 1 m/S 761 mmHg 93%
    01:00 +19°C° 0 mm 1 m/S 760 mmHg 93%
    02:00 +18°C° 0 mm 1 m/S 760 mmHg 93%
    03:00 +18°C° 0 mm 1 m/S 760 mmHg 93%
    04:00 +16°C° 0 mm 0 m/S 760 mmHg 93%
    05:00 +17°C° 0 mm 0 m/S 760 mmHg 89%
    06:00 +18°C° 0 mm 0 m/S 760 mmHg 85%
    07:00 +19°C° 0 mm 0 m/S 761 mmHg 81%
    08:00 +23°C° 0 mm 1 m/S 760 mmHg 71%
    09:00 +26°C° 0 mm 2 m/S 760 mmHg 61%
    10:00 +28°C° 0 mm 3 m/S 760 mmHg 52%
    11:00 +28°C° 0 mm 3 m/S 759 mmHg 53%
    12:00 +28°C° 0 mm 4 m/S 758 mmHg 54%
    13:00 +28°C° 0 mm 4 m/S 758 mmHg 55%
    14:00 +28°C° 0 mm 4 m/S 757 mmHg 58%
    15:00 +27°C° 0 mm 4 m/S 757 mmHg 61%
    16:00 +26°C° 0 mm 3 m/S 757 mmHg 64%
    17:00 +25°C° 0 mm 3 m/S 758 mmHg 71%
    18:00 +23°C° 0 mm 2 m/S 758 mmHg 78%
    19:00 +22°C° 0 mm 1 m/S 759 mmHg 85%
    20:00 +22°C° 0 mm 1 m/S 759 mmHg 84%
    21:00 +22°C° 0 mm 1 m/S 760 mmHg 83%
    22:00 +19°C° 0 mm 0 m/S 760 mmHg 82%
    23:00 +19°C° 0 mm 0 m/S 760 mmHg 85%

    29 August, Donnerstag

    Zeit Temperatur Niederschläge Wind Luftdruck Luftfeuchtigkeit
    00:00 +20°C° 0 mm 1 m/S 760 mmHg 88%
    01:00 +19°C° 0 mm 1 m/S 760 mmHg 90%
    02:00 +19°C° 0 mm 1 m/S 760 mmHg 91%
    03:00 +16°C° 0 mm 0 m/S 759 mmHg 92%
    04:00 +16°C° 0 mm 0 m/S 759 mmHg 92%
    05:00 +19°C° 0 mm 1 m/S 760 mmHg 90%
    06:00 +20°C° 0 mm 1 m/S 760 mmHg 88%
    07:00 +19°C° 0 mm 2 m/S 761 mmHg 86%
    08:00 +21°C° 0 mm 2 m/S 761 mmHg 78%
    09:00 +24°C° 0 mm 3 m/S 761 mmHg 69%
    10:00 +26°C° 0 mm 3 m/S 761 mmHg 60%
    11:00 +27°C° 0 mm 3 m/S 760 mmHg 58%
    12:00 +28°C° 0 mm 4 m/S 759 mmHg 56%
    13:00 +29°C° 0 mm 4 m/S 758 mmHg 54%
    14:00 +28°C° 0 mm 4 m/S 757 mmHg 57%
    15:00 +27°C° 0 mm 4 m/S 757 mmHg 59%
    16:00 +26°C° 0 mm 3 m/S 757 mmHg 62%
    17:00 +25°C° 0 mm 3 m/S 758 mmHg 70%
    18:00 +23°C° 0 mm 2 m/S 758 mmHg 78%
    19:00 +21°C° 0 mm 1 m/S 759 mmHg 86%
    20:00 +21°C° 0 mm 1 m/S 759 mmHg 86%
    21:00 +19°C° 0 mm 0 m/S 760 mmHg 85%
    22:00 +20°C° 0 mm 0 m/S 761 mmHg 84%
    23:00 +19°C° 0 mm 0 m/S 760 mmHg 86%

    30 August, Freitag

    Zeit Temperatur Niederschläge Wind Luftdruck Luftfeuchtigkeit
    00:00 +18°C° 0 mm 0 m/S 760 mmHg 87%
    01:00 +18°C° 0 mm 0 m/S 760 mmHg 89%
    02:00 +17°C° 0 mm 0 m/S 760 mmHg 90%
    03:00 +17°C° 0 mm 0 m/S 760 mmHg 92%
    04:00 +16°C° 0 mm 0 m/S 760 mmHg 93%
    05:00 +17°C° 0 mm 0 m/S 760 mmHg 91%
    06:00 +20°C° 0 mm 1 m/S 761 mmHg 88%
    07:00 +21°C° 0 mm 1 m/S 761 mmHg 86%
    08:00 +22°C° 0 mm 1 m/S 761 mmHg 79%
    09:00 +23°C° 0 mm 2 m/S 761 mmHg 73%
    10:00 +25°C° 0 mm 2 m/S 761 mmHg 67%
    11:00 +26°C° 0 mm 3 m/S 760 mmHg 63%
    12:00 +27°C° 0 mm 3 m/S 759 mmHg 58%
    13:00 +28°C° 0 mm 4 m/S 758 mmHg 54%
    14:00 +27°C° 0 mm 4 m/S 758 mmHg 57%
    15:00 +27°C° 0 mm 4 m/S 758 mmHg 60%
    16:00 +26°C° 0 mm 4 m/S 758 mmHg 63%
    17:00 +25°C° 0 mm 3 m/S 758 mmHg 68%
    18:00 +22°C° 0 mm 3 m/S 759 mmHg 74%
    19:00 +21°C° 0 mm 3 m/S 760 mmHg 79%
    20:00 +21°C° 0 mm 2 m/S 760 mmHg 78%
    21:00 +21°C° 0 mm 2 m/S 761 mmHg 77%
    22:00 +21°C° 0 mm 2 m/S 761 mmHg 77%
    23:00 +21°C° 0 mm 2 m/S 761 mmHg 77%
    Mehr zeigen